timestamp,surface_pressure_avg,surface_temp_avg,battery_voltage,lat,long
2021-06-05 00:09:01+00:00,227.4331,9.8,12.73,47.84626,-54.09684
2021-06-05 00:19:01+00:00,225.8664,9.8,12.73,47.84626,-54.09684
2021-06-05 00:29:01+00:00,223.2348,9.83,12.73,47.84626,-54.09684
2021-06-05 00:39:01+00:00,216.9764,9.87,12.73,47.84626,-54.09684
2021-06-05 00:49:01+00:00,213.6448,9.88,12.73,47.84626,-54.09684
2021-06-05 00:59:01+00:00,213.7531,9.87,12.73,47.84626,-54.09684
2021-06-05 01:09:01+00:00,211.4714,9.88,12.73,47.84626,-54.09684
2021-06-05 01:19:01+00:00,208.4964,9.89,12.65,47.84626,-54.09684
2021-06-05 01:29:01+00:00,205.5098,9.89,12.65,47.84626,-54.09684
2021-06-05 01:39:01+00:00,206.7614,9.87,12.65,47.84626,-54.09684
2021-06-05 01:49:01+00:00,207.9497,9.85,12.65,47.84626,-54.09684
2021-06-05 01:59:01+00:00,206.3014,9.87,12.65,47.84626,-54.09684
2021-06-05 02:09:01+00:00,210.4014,9.87,12.65,47.84626,-54.09684
2021-06-05 02:19:00+00:00,215.5731,9.84,12.65,47.84626,-54.09684
2021-06-05 02:29:00+00:00,213.2131,9.86,12.65,47.84626,-54.09684
2021-06-05 02:39:00+00:00,210.8965,9.88,12.65,47.84626,-54.09684
2021-06-05 02:49:00+00:00,216.0864,9.87,12.65,47.84626,-54.09684
2021-06-05 02:59:00+00:00,218.2848,9.84,12.65,47.84626,-54.09684
2021-06-05 03:09:00+00:00,212.4397,9.85,12.65,47.84626,-54.09684
2021-06-05 03:19:01+00:00,218.1831,9.86,12.57,47.84626,-54.09684
2021-06-05 03:29:01+00:00,226.7064,9.83,12.57,47.84626,-54.09684
2021-06-05 03:39:01+00:00,222.0098,9.84,12.57,47.84626,-54.09684
2021-06-05 03:49:01+00:00,221.1664,9.85,12.57,47.84626,-54.09684
2021-06-05 03:59:01+00:00,227.7914,9.84,12.57,47.84626,-54.09684
2021-06-05 04:09:01+00:00,231.0247,9.84,12.57,47.84626,-54.09684
2021-06-05 04:19:01+00:00,232.1681,9.84,12.57,47.84626,-54.09684
2021-06-05 04:29:01+00:00,238.0681,9.83,12.57,47.84626,-54.09684
2021-06-05 04:39:01+00:00,244.6448,9.83,12.57,47.84626,-54.09684
2021-06-05 04:49:01+00:00,247.7731,9.83,12.57,47.84626,-54.09684
2021-06-05 04:59:01+00:00,251.5281,9.84,12.57,47.84626,-54.09684
2021-06-05 05:09:01+00:00,258.8265,9.87,12.57,47.84626,-54.09684
2021-06-05 05:19:01+00:00,263.263,9.88,12.57,47.84626,-54.09684
2021-06-05 05:29:01+00:00,263.4847,9.89,12.57,47.84626,-54.09684
2021-06-05 05:39:01+00:00,268.9798,9.9,12.57,47.84626,-54.09684
2021-06-05 05:49:01+00:00,277.7031,9.9,12.57,47.84626,-54.09684
2021-06-05 05:59:01+00:00,284.2698,9.9,12.57,47.84626,-54.09684
2021-06-05 06:09:01+00:00,283.7581,9.9,12.57,47.84626,-54.09684
2021-06-05 06:19:01+00:00,289.4581,9.9,12.57,47.84626,-54.09684
2021-06-05 06:29:01+00:00,296.788,9.9,12.57,47.84626,-54.09684
2021-06-05 06:39:01+00:00,303.0481,9.9,12.57,47.84626,-54.09684
2021-06-05 06:49:01+00:00,303.5764,9.9,12.57,47.84626,-54.09684
2021-06-05 06:59:01+00:00,308.0598,9.9,12.57,47.84626,-54.09684
2021-06-05 07:09:01+00:00,308.6963,9.9,12.57,47.84626,-54.09684
2021-06-05 07:19:01+00:00,312.6514,9.9,12.57,47.84626,-54.09684
2021-06-05 07:29:01+00:00,315.9597,9.9,12.57,47.84626,-54.09684
2021-06-05 07:39:01+00:00,319.0764,9.9,12.57,47.84626,-54.09684
2021-06-05 07:49:01+00:00,319.8796,9.98,12.57,47.84626,-54.09684
2021-06-05 07:59:01+00:00,323.2263,10.0,12.57,47.84626,-54.09684
2021-06-05 08:09:01+00:00,327.9313,10.0,12.57,47.84626,-54.09684
2021-06-05 08:19:01+00:00,330.6079,10.0,12.57,47.84626,-54.09684
2021-06-05 08:29:01+00:00,334.4062,9.97,12.57,47.84626,-54.09684
2021-06-05 08:39:01+00:00,335.083,9.49,12.57,47.84626,-54.09684
2021-06-05 08:49:01+00:00,332.0063,9.88,12.57,47.84626,-54.09684
2021-06-05 08:59:01+00:00,331.3463,10.0,12.57,47.84626,-54.09684
2021-06-05 09:09:01+00:00,327.9279,9.9,12.57,47.84626,-54.09684
2021-06-05 09:19:01+00:00,325.553,9.6,12.57,47.84626,-54.09684
2021-06-05 09:29:01+00:00,323.5146,9.6,12.57,47.84626,-54.09684
2021-06-05 09:39:01+00:00,319.6296,9.76,12.57,47.84626,-54.09684
2021-06-05 09:49:01+00:00,318.5463,9.9,12.57,47.84626,-54.09684
2021-06-05 09:59:01+00:00,319.883,9.9,12.57,47.84626,-54.09684
2021-06-05 10:09:01+00:00,313.083,10.0,12.57,47.84626,-54.09684
2021-06-05 10:19:01+00:00,303.2014,10.1,12.65,47.84626,-54.09684
2021-06-05 10:29:01+00:00,300.6197,10.1,12.65,47.84626,-54.09684
2021-06-05 10:39:01+00:00,296.0464,10.1,12.65,47.84626,-54.09684
2021-06-05 10:49:01+00:00,285.7081,10.19,12.65,47.84626,-54.09684
2021-06-05 10:59:01+00:00,278.5046,10.2,12.65,47.84626,-54.09684
2021-06-05 11:09:01+00:00,274.6447,10.2,12.65,47.84626,-54.09684
2021-06-05 11:19:01+00:00,269.1347,10.2,12.97,47.84626,-54.09684
2021-06-05 11:29:01+00:00,260.4231,10.28,12.97,47.84626,-54.09684
2021-06-05 11:39:01+00:00,258.0147,10.38,12.97,47.84626,-54.09684
2021-06-05 11:49:01+00:00,257.4148,10.5,12.97,47.84626,-54.09684
2021-06-05 11:59:01+00:00,253.5531,10.62,12.97,47.84626,-54.09684
2021-06-05 12:09:01+00:00,244.9814,10.77,12.97,47.84626,-54.09684
2021-06-05 12:19:01+00:00,244.7397,10.9,13.53,47.84626,-54.09684
2021-06-05 12:29:01+00:00,244.1831,10.91,13.53,47.84626,-54.09684
2021-06-05 12:39:01+00:00,237.4081,11.01,13.53,47.84626,-54.09684
2021-06-05 12:49:01+00:00,230.8398,11.1,13.53,47.84626,-54.09684
2021-06-05 12:59:01+00:00,230.1948,11.09,13.53,47.84626,-54.09684
2021-06-05 13:09:01+00:00,229.1898,11.0,13.53,47.84626,-54.09684
2021-06-05 13:19:01+00:00,226.0481,11.0,13.53,47.84626,-54.09684
2021-06-05 13:29:01+00:00,223.8314,10.94,13.53,47.84626,-54.09684
2021-06-05 13:39:01+00:00,225.6531,10.9,13.53,47.84626,-54.09684
2021-06-05 13:49:01+00:00,229.1914,10.88,13.53,47.84626,-54.09684
2021-06-05 13:59:01+00:00,228.4265,10.8,13.53,47.84626,-54.09684
2021-06-05 14:09:01+00:00,228.7214,10.8,13.53,47.84626,-54.09684
2021-06-05 14:19:01+00:00,232.3797,10.8,13.92,47.84626,-54.09684
2021-06-05 14:29:01+00:00,234.5081,10.79,13.92,47.84626,-54.09684
2021-06-05 14:39:01+00:00,230.0547,10.79,13.92,47.84626,-54.09684
2021-06-05 14:49:01+00:00,228.1647,10.87,13.92,47.84626,-54.09684
2021-06-05 14:59:01+00:00,231.8547,10.9,13.92,47.84626,-54.09684
2021-06-05 15:09:01+00:00,234.3114,10.9,13.92,47.84626,-54.09684
2021-06-05 15:19:00+00:00,233.5981,10.9,14.0,47.84626,-54.09684
2021-06-05 15:29:00+00:00,234.0748,10.9,14.0,47.84626,-54.09684
2021-06-05 15:39:00+00:00,237.6564,10.91,14.0,47.84626,-54.09684
2021-06-05 15:49:00+00:00,240.188,10.9,14.0,47.84626,-54.09684
2021-06-05 15:59:00+00:00,240.0764,10.9,14.0,47.84626,-54.09684
2021-06-05 16:09:00+00:00,242.0181,10.8,14.0,47.84626,-54.09684
2021-06-05 16:19:00+00:00,246.0531,10.79,14.16,47.84626,-54.09684
2021-06-05 16:29:00+00:00,247.4264,10.77,14.16,47.84626,-54.09684
2021-06-05 16:39:00+00:00,247.1081,10.7,14.16,47.84626,-54.09684
2021-06-05 16:49:00+00:00,250.1815,10.5,14.16,47.84626,-54.09684
2021-06-05 16:59:00+00:00,254.0397,10.4,14.16,47.84626,-54.09684
2021-06-05 17:09:00+00:00,257.8131,10.36,14.16,47.84626,-54.09684
2021-06-05 17:19:01+00:00,262.6564,10.4,14.24,47.84626,-54.09684
2021-06-05 17:29:01+00:00,272.0331,10.4,14.24,47.84626,-54.09684
2021-06-05 17:39:01+00:00,278.5081,10.27,14.24,47.84626,-54.09684
2021-06-05 17:49:01+00:00,282.0647,10.26,14.24,47.84626,-54.09684
2021-06-05 17:59:01+00:00,280.2798,10.29,14.24,47.84626,-54.09684
2021-06-05 18:09:01+00:00,283.5881,10.1,14.24,47.84626,-54.09684
2021-06-05 18:19:00+00:00,291.6813,10.03,14.16,47.84626,-54.09684
2021-06-05 18:29:00+00:00,297.27299999999997,10.17,14.16,47.84626,-54.09684
2021-06-05 18:39:00+00:00,300.0764,10.2,14.16,47.84626,-54.09684
2021-06-05 18:49:00+00:00,307.548,10.03,14.16,47.84626,-54.09684
2021-06-05 18:59:00+00:00,318.6796,9.9,14.16,47.84626,-54.09684
2021-06-05 19:09:00+00:00,320.423,10.0,14.16,47.84626,-54.09684
2021-06-05 19:19:01+00:00,324.0114,9.8,14.0,47.84626,-54.09684
2021-06-05 19:29:01+00:00,333.1847,9.6,14.0,47.84626,-54.09684
2021-06-05 19:39:01+00:00,334.9581,9.69,14.0,47.84626,-54.09684
2021-06-05 19:49:01+00:00,326.9546,9.8,14.0,47.84626,-54.09684
2021-06-05 19:59:01+00:00,326.2996,9.6,14.0,47.84626,-54.09684
2021-06-05 20:09:01+00:00,331.0779,9.36,14.0,47.84626,-54.09684
2021-06-05 20:19:01+00:00,331.0113,9.17,13.76,47.84626,-54.09684
2021-06-05 20:29:01+00:00,329.1462,9.3,13.76,47.84626,-54.09684
2021-06-05 20:39:01+00:00,333.3347,9.1,13.76,47.84626,-54.09684
2021-06-05 20:49:01+00:00,340.2963,9.0,13.76,47.84626,-54.09684
2021-06-05 20:59:01+00:00,341.1913,9.0,13.76,47.84626,-54.09684
2021-06-05 21:09:01+00:00,336.4397,9.1,13.76,47.84626,-54.09684
2021-06-05 21:19:01+00:00,335.228,9.18,13.6,47.84626,-54.09684
2021-06-05 21:29:01+00:00,334.4796,9.1,13.6,47.84626,-54.09684
2021-06-05 21:39:01+00:00,331.5797,9.17,13.6,47.84626,-54.09684
2021-06-05 21:49:01+00:00,328.3513,9.1,13.6,47.84626,-54.09684
2021-06-05 21:59:01+00:00,329.5146,9.1,13.6,47.84626,-54.09684
2021-06-05 22:09:01+00:00,327.0546,9.16,13.6,47.84626,-54.09684
2021-06-05 22:19:01+00:00,320.2029,9.2,13.29,47.84626,-54.09684
2021-06-05 22:29:01+00:00,319.7463,9.2,13.29,47.84626,-54.09684
2021-06-05 22:39:01+00:00,319.1396,9.2,13.29,47.84626,-54.09684
2021-06-05 22:49:01+00:00,313.2946,9.2,13.29,47.84626,-54.09684
2021-06-05 22:59:01+00:00,305.158,9.3,13.29,47.84626,-54.09684
2021-06-05 23:09:01+00:00,297.6914,9.2,13.29,47.84626,-54.09684
2021-06-05 23:19:01+00:00,293.843,9.22,12.97,47.84626,-54.09684
2021-06-05 23:29:01+00:00,286.1346,9.2,12.97,47.84626,-54.09684
2021-06-05 23:39:01+00:00,280.1714,9.1,12.97,47.84626,-54.09684
2021-06-05 23:49:01+00:00,275.4664,9.16,12.97,47.84626,-54.09684
2021-06-05 23:59:01+00:00,269.0531,9.57,12.97,47.84626,-54.09684
